• In Czech Republic
  • List of Countries
  • For 7 days
  • Water Temperature
  • Satellite Maps
  • Weather Map
  • Weather Widgets
  • user-avatar
    Login

    Hourly Weather Djelfa

    Today, 18 August, Saturday

    Time Temperature Precipitation Wind Pressure Humidity
    00:00 +25°C° 0 mm 1 mps 667 mmHg 45%
    01:00 +25°C° 0 mm 1 mps 667 mmHg 47%
    02:00 +24°C° 0 mm 1 mps 667 mmHg 48%
    03:00 +24°C° 0 mm 1 mps 667 mmHg 50%
    04:00 +23°C° 0 mm 1 mps 667 mmHg 51%
    05:00 +23°C° 0 mm 1 mps 667 mmHg 52%
    06:00 +23°C° 0 mm 1 mps 667 mmHg 53%
    07:00 +24°C° 0 mm 1 mps 668 mmHg 49%
    08:00 +25°C° 0 mm 1 mps 668 mmHg 44%
    09:00 +26°C° 0 mm 1 mps 668 mmHg 40%
    10:00 +27°C° 0 mm 1 mps 668 mmHg 36%
    11:00 +29°C° 0 mm 1 mps 668 mmHg 32%
    12:00 +30°C° 0 mm 2 mps 669 mmHg 28%
    13:00 +30°C° 0 mm 2 mps 668 mmHg 26%
    14:00 +31°C° 0 mm 3 mps 668 mmHg 25%
    15:00 +31°C° 0 mm 3 mps 668 mmHg 24%
    16:00 +31°C° 0.1 mm 3 mps 668 mmHg 24%
    17:00 +31°C° 0.1 mm 3 mps 668 mmHg 25%
    18:00 +30°C° 0.1 mm 2 mps 668 mmHg 25%
    19:00 +30°C° 0.1 mm 3 mps 668 mmHg 27%
    20:00 +29°C° 0.1 mm 3 mps 668 mmHg 28%
    21:00 +28°C° 0.1 mm 3 mps 669 mmHg 29%
    22:00 +28°C° 0.5 mm 3 mps 668 mmHg 32%
    23:00 +27°C° 0.5 mm 3 mps 668 mmHg 36%

    Tomorrow, 19 August, Sunday

    Time Temperature Precipitation Wind Pressure Humidity
    00:00 +26°C° 0.5 mm 3 mps 668 mmHg 39%
    01:00 +26°C° 0.1 mm 2 mps 668 mmHg 41%
    02:00 +25°C° 0.1 mm 1 mps 668 mmHg 43%
    03:00 +25°C° 0.1 mm 1 mps 667 mmHg 45%
    04:00 +25°C° 0 mm 1 mps 667 mmHg 46%
    05:00 +25°C° 0 mm 1 mps 667 mmHg 46%
    06:00 +25°C° 0 mm 2 mps 668 mmHg 46%
    07:00 +26°C° 0.1 mm 2 mps 668 mmHg 44%
    08:00 +27°C° 0.1 mm 2 mps 669 mmHg 41%
    09:00 +28°C° 0.1 mm 2 mps 669 mmHg 38%
    10:00 +29°C° 0 mm 2 mps 669 mmHg 36%
    11:00 +30°C° 0 mm 2 mps 669 mmHg 34%
    12:00 +30°C° 0 mm 2 mps 669 mmHg 32%
    13:00 +31°C° 0 mm 3 mps 669 mmHg 30%
    14:00 +33°C° 0 mm 3 mps 669 mmHg 29%
    15:00 +33°C° 0 mm 4 mps 668 mmHg 27%
    16:00 +33°C° 0.1 mm 4 mps 668 mmHg 28%
    17:00 +32°C° 0.1 mm 4 mps 668 mmHg 29%
    18:00 +32°C° 0.1 mm 4 mps 668 mmHg 29%
    19:00 +30°C° 0.6 mm 4 mps 668 mmHg 33%
    20:00 +29°C° 0.6 mm 5 mps 668 mmHg 36%
    21:00 +28°C° 0.6 mm 5 mps 668 mmHg 40%
    22:00 +27°C° 0.9 mm 4 mps 668 mmHg 42%
    23:00 +26°C° 0.9 mm 3 mps 668 mmHg 45%

    Day after tomorrow, 20 August, Monday

    Time Temperature Precipitation Wind Pressure Humidity
    00:00 +26°C° 0.9 mm 2 mps 668 mmHg 48%
    01:00 +25°C° 0.1 mm 2 mps 667 mmHg 49%
    02:00 +25°C° 0.1 mm 2 mps 667 mmHg 51%
    03:00 +25°C° 0.1 mm 2 mps 667 mmHg 53%
    04:00 +24°C° 0.2 mm 2 mps 667 mmHg 54%
    05:00 +24°C° 0.2 mm 2 mps 667 mmHg 55%
    06:00 +22°C° 0.2 mm 3 mps 667 mmHg 56%
    07:00 +24°C° 0.2 mm 2 mps 667 mmHg 53%
    08:00 +25°C° 0.2 mm 2 mps 667 mmHg 49%
    09:00 +26°C° 0.2 mm 1 mps 668 mmHg 46%
    10:00 +27°C° 0 mm 2 mps 668 mmHg 42%
    11:00 +28°C° 0 mm 2 mps 668 mmHg 39%
    12:00 +29°C° 0 mm 2 mps 668 mmHg 35%
    13:00 +30°C° 0 mm 3 mps 668 mmHg 32%
    14:00 +30°C° 0 mm 3 mps 667 mmHg 30%
    15:00 +31°C° 0 mm 3 mps 667 mmHg 27%
    16:00 +30°C° 0.1 mm 4 mps 667 mmHg 27%
    17:00 +30°C° 0.1 mm 4 mps 667 mmHg 26%
    18:00 +29°C° 0.1 mm 4 mps 667 mmHg 25%
    19:00 +29°C° 0.3 mm 4 mps 667 mmHg 27%
    20:00 +28°C° 0.3 mm 4 mps 667 mmHg 29%
    21:00 +27°C° 0.3 mm 3 mps 667 mmHg 30%
    22:00 +27°C° 0 mm 3 mps 667 mmHg 35%
    23:00 +26°C° 0 mm 3 mps 667 mmHg 39%

    21 August, Tuesday

    Time Temperature Precipitation Wind Pressure Humidity
    00:00 +25°C° 0 mm 2 mps 667 mmHg 43%
    01:00 +25°C° 0 mm 2 mps 667 mmHg 47%
    02:00 +24°C° 0 mm 2 mps 666 mmHg 51%
    03:00 +24°C° 0 mm 2 mps 666 mmHg 54%
    04:00 +24°C° 0.2 mm 2 mps 666 mmHg 55%
    05:00 +23°C° 0.2 mm 2 mps 667 mmHg 56%
    06:00 +23°C° 0.2 mm 1 mps 667 mmHg 57%
    07:00 +24°C° 0 mm 2 mps 667 mmHg 53%
    08:00 +25°C° 0 mm 2 mps 667 mmHg 48%
    09:00 +26°C° 0 mm 3 mps 667 mmHg 44%
    10:00 +27°C° 0 mm 2 mps 667 mmHg 41%
    11:00 +28°C° 0 mm 2 mps 668 mmHg 37%
    12:00 +29°C° 0 mm 2 mps 668 mmHg 34%
    13:00 +29°C° 0.1 mm 2 mps 667 mmHg 34%
    14:00 +29°C° 0.1 mm 2 mps 667 mmHg 33%
    15:00 +30°C° 0.1 mm 2 mps 667 mmHg 33%
    16:00 +29°C° 0.3 mm 2 mps 667 mmHg 34%
    17:00 +29°C° 0.3 mm 2 mps 667 mmHg 34%
    18:00 +29°C° 0.3 mm 3 mps 666 mmHg 35%
    19:00 +28°C° 0.1 mm 3 mps 667 mmHg 38%
    20:00 +27°C° 0.1 mm 4 mps 667 mmHg 41%
    21:00 +27°C° 0.1 mm 4 mps 667 mmHg 45%
    22:00 +26°C° 0 mm 4 mps 667 mmHg 47%
    23:00 +26°C° 0 mm 3 mps 667 mmHg 50%

    22 August, Wednesday

    Time Temperature Precipitation Wind Pressure Humidity
    00:00 +25°C° 0 mm 3 mps 667 mmHg 53%
    01:00 +25°C° 0 mm 3 mps 667 mmHg 54%
    02:00 +24°C° 0 mm 3 mps 666 mmHg 55%
    03:00 +24°C° 0 mm 2 mps 666 mmHg 57%
    04:00 +24°C° 0 mm 2 mps 666 mmHg 58%
    05:00 +24°C° 0 mm 2 mps 666 mmHg 59%
    06:00 +23°C° 0 mm 1 mps 666 mmHg 60%
    07:00 +25°C° 0 mm 1 mps 667 mmHg 54%
    08:00 +26°C° 0 mm 1 mps 667 mmHg 48%
    09:00 +27°C° 0 mm 1 mps 668 mmHg 42%
    10:00 +28°C° 0 mm 1 mps 668 mmHg 37%
    11:00 +30°C° 0 mm 1 mps 668 mmHg 32%
    12:00 +31°C° 0 mm 1 mps 668 mmHg 27%
    13:00 +31°C° 0 mm 2 mps 668 mmHg 25%
    14:00 +31°C° 0 mm 2 mps 668 mmHg 24%
    15:00 +32°C° 0 mm 2 mps 667 mmHg 23%
    16:00 +31°C° 0.1 mm 2 mps 667 mmHg 25%
    17:00 +31°C° 0.1 mm 2 mps 667 mmHg 28%
    18:00 +30°C° 0.1 mm 2 mps 667 mmHg 30%
    19:00 +30°C° 0 mm 3 mps 667 mmHg 35%
    20:00 +29°C° 0 mm 3 mps 667 mmHg 40%
    21:00 +28°C° 0 mm 4 mps 667 mmHg 45%
    22:00 +27°C° 0.1 mm 5 mps 667 mmHg 49%
    23:00 +26°C° 0.1 mm 6 mps 667 mmHg 53%

    23 August, Thursday

    Time Temperature Precipitation Wind Pressure Humidity
    00:00 +24°C° 0.1 mm 7 mps 667 mmHg 57%
    01:00 +24°C° 0.3 mm 7 mps 667 mmHg 56%
    02:00 +24°C° 0.3 mm 7 mps 667 mmHg 56%
    03:00 +24°C° 0.3 mm 8 mps 666 mmHg 55%
    04:00 +24°C° 0 mm 6 mps 666 mmHg 55%
    05:00 +25°C° 0 mm 5 mps 666 mmHg 55%
    06:00 +23°C° 0 mm 4 mps 666 mmHg 55%
    07:00 +26°C° 0 mm 3 mps 667 mmHg 51%
    08:00 +27°C° 0 mm 3 mps 667 mmHg 46%
    09:00 +28°C° 0 mm 3 mps 667 mmHg 41%
    10:00 +29°C° 0 mm 3 mps 667 mmHg 38%
    11:00 +30°C° 0 mm 3 mps 667 mmHg 35%
    12:00 +31°C° 0 mm 3 mps 667 mmHg 32%
    13:00 +30°C° 1.2 mm 3 mps 667 mmHg 34%
    14:00 +30°C° 1.2 mm 4 mps 666 mmHg 35%
    15:00 +30°C° 1.2 mm 4 mps 666 mmHg 36%
    16:00 +29°C° 1.1 mm 4 mps 666 mmHg 41%
    17:00 +28°C° 1.1 mm 4 mps 665 mmHg 46%
    18:00 +26°C° 1.1 mm 4 mps 665 mmHg 51%
    19:00 +26°C° 0.1 mm 4 mps 666 mmHg 53%
    20:00 +26°C° 0.1 mm 4 mps 666 mmHg 54%
    21:00 +25°C° 0.1 mm 3 mps 667 mmHg 56%
    22:00 +24°C° 0 mm 3 mps 667 mmHg 59%
    23:00 +24°C° 0 mm 3 mps 666 mmHg 62%
    Show more